Location: Hermaringen
(48.5952°N, 10.2585°E)
Time: 01:57:17
(UTC+00:00)

SAR-Lupe-4 - Pass Details

Date: 18 November 2025
Orbit: 476 x 483 km, 98.1° (Epoch: 03 October)

Event Time Altitude Azimuth Distance (km) Brightness Sun altitude
Rises 16:14:32 0° 150° (SSE) 2,535 7.1 -6.6°
Reaches altitude 10° 16:16:38 10° 143° (SE) 1,660 6.1 -6.9°
Maximum altitude 16:20:03 44° 71° (ENE) 675 3.8 -7.4°
Drops below altitude 10° 16:23:28 10° 358° (N) 1,670 6.1 -8.0°
Sets 16:25:36 0° 352° (N) 2,554 7.1 -8.3°
